Time,TemperatureF,DewpointF,PressureIn,WindDirection,WindDirectionDegrees,WindSpeedMPH,WindSpeedGustMPH,Humidity,HourlyPrecipIn,Conditions,Clouds,dailyrainin,SoftwareType,DateUTC
2013-04-04 00:00:00,31.9,23.0,29.65,WSW,247,5.0,7.0,68,0.00,,,0.00,Rainwise IP-100,2013-04-04 04:00:00,
2013-04-04 00:04:00,31.9,23.0,29.65,WSW,247,3.0,7.0,65,0.00,,,0.00,Rainwise IP-100,2013-04-04 04:04:00,
2013-04-04 00:09:00,31.9,23.0,29.65,WSW,247,4.0,9.0,65,0.00,,,0.00,Rainwise IP-100,2013-04-04 04:09:00,
2013-04-04 00:11:00,31.7,23.0,29.65,WSW,247,3.0,9.0,66,0.00,,,0.00,Rainwise IP-100,2013-04-04 04:11:00,
2013-04-04 00:16:00,31.7,23.0,29.64,WSW,247,3.0,9.0,69,0.00,,,0.00,Rainwise IP-100,2013-04-04 04:16:00,
2013-04-04 00:21:00,31.8,23.0,29.65,WNW,292,2.0,9.0,69,0.00,,,0.00,Rainwise IP-100,2013-04-04 04:21:00,
2013-04-04 00:26:00,31.7,23.0,29.65,WSW,247,6.0,10.0,67,0.00,,,0.00,Rainwise IP-100,2013-04-04 04:26:00,
2013-04-04 00:31:00,31.5,23.0,29.66,WSW,247,7.0,12.0,65,0.00,,,0.00,Rainwise IP-100,2013-04-04 04:31:00,
2013-04-04 00:36:00,31.6,23.0,29.66,SW,225,9.0,9.0,65,0.00,,,0.00,Rainwise IP-100,2013-04-04 04:36:00,
2013-04-04 00:41:00,31.6,23.0,29.66,WSW,247,5.0,11.0,65,0.00,,,0.00,Rainwise IP-100,2013-04-04 04:41:00,
2013-04-04 00:46:00,31.6,23.0,29.66,West,270,5.0,12.0,65,0.00,,,0.00,Rainwise IP-100,2013-04-04 04:46:00,
2013-04-04 00:51:00,31.7,23.0,29.67,WSW,247,4.0,12.0,65,0.00,,,0.00,Rainwise IP-100,2013-04-04 04:51:00,
2013-04-04 00:57:00,31.7,21.0,29.67,WSW,247,5.0,11.0,63,0.00,,,0.00,Rainwise IP-100,2013-04-04 04:57:00,
2013-04-04 01:02:00,31.7,23.0,29.68,WSW,247,7.0,10.0,65,0.00,,,0.00,Rainwise IP-100,2013-04-04 05:02:00,
2013-04-04 01:07:00,31.6,23.0,29.68,WSW,247,6.0,9.0,64,0.00,,,0.00,Rainwise IP-100,2013-04-04 05:07:00,
2013-04-04 01:12:00,31.6,21.0,29.68,West,270,5.0,10.0,62,0.00,,,0.00,Rainwise IP-100,2013-04-04 05:12:00,
2013-04-04 01:17:00,31.6,23.0,29.68,WSW,247,5.0,9.0,67,0.00,,,0.00,Rainwise IP-100,2013-04-04 05:17:00,
2013-04-04 01:22:00,31.7,23.0,29.68,WSW,247,5.0,9.0,65,0.00,,,0.00,Rainwise IP-100,2013-04-04 05:22:00,
2013-04-04 01:27:00,31.6,23.0,29.69,West,270,7.0,11.0,65,0.00,,,0.00,Rainwise IP-100,2013-04-04 05:27:00,
2013-04-04 01:32:00,31.7,23.0,29.69,WSW,247,5.0,7.0,66,0.00,,,0.00,Rainwise IP-100,2013-04-04 05:32:00,
2013-04-04 01:37:00,31.7,23.0,29.68,West,270,6.0,10.0,67,0.00,,,0.00,Rainwise IP-100,2013-04-04 05:37:00,
2013-04-04 01:42:00,31.6,23.0,29.69,WNW,292,5.0,12.0,64,0.00,,,0.00,Rainwise IP-100,2013-04-04 05:42:00,
2013-04-04 01:47:00,31.6,21.0,29.69,WSW,247,3.0,16.0,63,0.00,,,0.00,Rainwise IP-100,2013-04-04 05:47:00,
2013-04-04 01:52:00,31.6,23.0,29.69,WSW,247,6.0,9.0,65,0.00,,,0.00,Rainwise IP-100,2013-04-04 05:52:00,
2013-04-04 01:54:00,31.8,21.0,29.69,WSW,247,3.0,10.0,63,0.00,,,0.00,Rainwise IP-100,2013-04-04 05:54:00,
2013-04-04 01:59:00,31.8,23.0,29.69,WSW,247,5.0,8.0,64,0.00,,,0.00,Rainwise IP-100,2013-04-04 05:59:00,
2013-04-04 02:04:00,31.7,23.0,29.69,WSW,247,6.0,9.0,64,0.00,,,0.00,Rainwise IP-100,2013-04-04 06:04:00,
2013-04-04 02:09:00,31.7,23.0,29.69,WSW,247,6.0,11.0,65,0.00,,,0.00,Rainwise IP-100,2013-04-04 06:09:00,
2013-04-04 02:14:00,31.6,23.0,29.69,WSW,247,4.0,9.0,64,0.00,,,0.00,Rainwise IP-100,2013-04-04 06:14:00,
2013-04-04 02:19:00,31.3,21.0,29.69,SW,225,4.0,7.0,65,0.00,,,0.00,Rainwise IP-100,2013-04-04 06:19:00,
2013-04-04 02:24:00,31.3,21.0,29.69,WSW,247,5.0,9.0,63,0.00,,,0.00,Rainwise IP-100,2013-04-04 06:24:00,
2013-04-04 02:29:00,31.4,21.0,29.69,SSW,202,5.0,9.0,65,0.00,,,0.00,Rainwise IP-100,2013-04-04 06:29:00,
2013-04-04 02:34:00,31.4,21.0,29.69,WSW,247,7.0,7.0,64,0.00,,,0.00,Rainwise IP-100,2013-04-04 06:34:00,
2013-04-04 02:39:00,31.2,21.0,29.69,WSW,247,2.0,7.0,65,0.00,,,0.00,Rainwise IP-100,2013-04-04 06:39:00,
2013-04-04 02:44:00,31.2,21.0,29.69,WSW,247,6.0,7.0,63,0.00,,,0.00,Rainwise IP-100,2013-04-04 06:44:00,
2013-04-04 02:49:00,31.2,21.0,29.70,WSW,247,7.0,7.0,65,0.00,,,0.00,Rainwise IP-100,2013-04-04 06:49:00,
2013-04-04 02:54:00,31.1,21.0,29.70,West,270,2.0,10.0,63,0.00,,,0.00,Rainwise IP-100,2013-04-04 06:54:00,
2013-04-04 02:59:00,31.0,21.0,29.69,SW,225,4.0,8.0,63,0.00,,,0.00,Rainwise IP-100,2013-04-04 06:59:00,
2013-04-04 03:04:00,30.9,18.0,29.70,WSW,247,4.0,10.0,60,0.00,,,0.00,Rainwise IP-100,2013-04-04 07:04:00,
2013-04-04 03:09:00,30.9,18.0,29.70,West,270,3.0,7.0,61,0.00,,,0.00,Rainwise IP-100,2013-04-04 07:09:00,
2013-04-04 03:14:00,30.9,21.0,29.70,SW,225,2.0,7.0,62,0.00,,,0.00,Rainwise IP-100,2013-04-04 07:14:00,
2013-04-04 03:19:00,30.9,18.0,29.70,West,270,2.0,9.0,59,0.00,,,0.00,Rainwise IP-100,2013-04-04 07:19:00,
2013-04-04 03:24:00,30.9,18.0,29.70,WNW,292,1.0,7.0,59,0.00,,,0.00,Rainwise IP-100,2013-04-04 07:24:00,
2013-04-04 03:29:00,30.9,18.0,29.70,West,270,2.0,8.0,57,0.00,,,0.00,Rainwise IP-100,2013-04-04 07:29:00,
2013-04-04 03:34:00,30.9,18.0,29.70,WSW,247,5.0,7.0,61,0.00,,,0.00,Rainwise IP-100,2013-04-04 07:34:00,
2013-04-04 03:39:00,30.9,18.0,29.71,West,270,3.0,7.0,57,0.00,,,0.00,Rainwise IP-100,2013-04-04 07:39:00,
2013-04-04 03:44:00,30.9,18.0,29.70,West,270,4.0,8.0,57,0.00,,,0.00,Rainwise IP-100,2013-04-04 07:44:00,
2013-04-04 03:49:00,30.9,18.0,29.71,West,270,6.0,10.0,59,0.00,,,0.00,Rainwise IP-100,2013-04-04 07:49:00,
2013-04-04 03:54:00,30.9,18.0,29.71,WNW,292,6.0,11.0,60,0.00,,,0.00,Rainwise IP-100,2013-04-04 07:54:00,
2013-04-04 03:59:00,30.9,18.0,29.70,WSW,247,5.0,9.0,58,0.00,,,0.00,Rainwise IP-100,2013-04-04 07:59:00,
2013-04-04 04:04:00,30.9,18.0,29.71,South,180,4.0,7.0,59,0.00,,,0.00,Rainwise IP-100,2013-04-04 08:04:00,
2013-04-04 04:09:00,30.9,18.0,29.71,West,270,4.0,9.0,58,0.00,,,0.00,Rainwise IP-100,2013-04-04 08:09:00,
2013-04-04 04:14:00,30.9,18.0,29.71,SSW,202,3.0,8.0,56,0.00,,,0.00,Rainwise IP-100,2013-04-04 08:14:00,
2013-04-04 04:19:00,31.0,18.0,29.71,WSW,247,4.0,7.0,60,0.00,,,0.00,Rainwise IP-100,2013-04-04 08:19:00,
2013-04-04 04:24:00,30.9,18.0,29.71,West,270,2.0,6.0,60,0.00,,,0.00,Rainwise IP-100,2013-04-04 08:24:00,
2013-04-04 04:29:00,30.9,18.0,29.72,West,270,5.0,11.0,56,0.00,,,0.00,Rainwise IP-100,2013-04-04 08:29:00,
2013-04-04 04:34:00,30.9,18.0,29.72,SW,225,6.0,10.0,60,0.00,,,0.00,Rainwise IP-100,2013-04-04 08:34:00,
2013-04-04 04:39:00,30.9,18.0,29.72,WSW,247,4.0,7.0,58,0.00,,,0.00,Rainwise IP-100,2013-04-04 08:39:00,
2013-04-04 04:44:00,30.8,18.0,29.72,West,270,4.0,9.0,58,0.00,,,0.00,Rainwise IP-100,2013-04-04 08:44:00,
2013-04-04 04:49:00,30.8,18.0,29.72,West,270,4.0,12.0,57,0.00,,,0.00,Rainwise IP-100,2013-04-04 08:49:00,
2013-04-04 04:54:00,30.8,18.0,29.72,WSW,247,4.0,8.0,57,0.00,,,0.00,Rainwise IP-100,2013-04-04 08:54:00,
2013-04-04 04:59:00,30.9,18.0,29.73,West,270,4.0,7.0,59,0.00,,,0.00,Rainwise IP-100,2013-04-04 08:59:00,
2013-04-04 05:05:00,30.8,18.0,29.72,West,270,6.0,8.0,56,0.00,,,0.00,Rainwise IP-100,2013-04-04 09:05:00,
2013-04-04 05:10:00,30.7,18.0,29.73,WSW,247,6.0,7.0,59,0.00,,,0.00,Rainwise IP-100,2013-04-04 09:10:00,
2013-04-04 05:15:00,30.6,18.0,29.73,WSW,247,4.0,13.0,57,0.00,,,0.00,Rainwise IP-100,2013-04-04 09:15:00,
2013-04-04 05:20:00,30.7,18.0,29.73,SSW,202,3.0,8.0,58,0.00,,,0.00,Rainwise IP-100,2013-04-04 09:20:00,
2013-04-04 05:25:00,30.6,18.0,29.73,WSW,247,2.0,7.0,58,0.00,,,0.00,Rainwise IP-100,2013-04-04 09:25:00,
2013-04-04 05:30:00,30.5,16.0,29.74,WSW,247,5.0,7.0,55,0.00,,,0.00,Rainwise IP-100,2013-04-04 09:30:00,
2013-04-04 05:35:00,30.3,18.0,29.74,WSW,247,6.0,7.0,56,0.00,,,0.00,Rainwise IP-100,2013-04-04 09:35:00,
2013-04-04 05:40:00,30.3,18.0,29.74,SW,225,1.0,7.0,57,0.00,,,0.00,Rainwise IP-100,2013-04-04 09:40:00,
2013-04-04 05:45:00,30.2,16.0,29.74,WSW,247,3.0,7.0,55,0.00,,,0.00,Rainwise IP-100,2013-04-04 09:45:00,
2013-04-04 05:50:00,30.1,16.0,29.74,WSW,247,5.0,6.0,55,0.00,,,0.00,Rainwise IP-100,2013-04-04 09:50:00,
2013-04-04 05:55:00,30.1,16.0,29.75,West,270,4.0,7.0,55,0.00,,,0.00,Rainwise IP-100,2013-04-04 09:55:00,
2013-04-04 06:00:00,29.9,16.0,29.75,WSW,247,3.0,7.0,55,0.00,,,0.00,Rainwise IP-100,2013-04-04 10:00:00,
2013-04-04 06:05:00,29.9,16.0,29.75,SW,225,5.0,6.0,55,0.00,,,0.00,Rainwise IP-100,2013-04-04 10:05:00,
2013-04-04 06:10:00,29.9,18.0,29.75,North,360,1.0,6.0,56,0.00,,,0.00,Rainwise IP-100,2013-04-04 10:10:00,
2013-04-04 06:15:00,29.7,18.0,29.76,WSW,247,3.0,4.0,59,0.00,,,0.00,Rainwise IP-100,2013-04-04 10:15:00,
2013-04-04 06:20:00,29.7,18.0,29.76,West,270,2.0,5.0,57,0.00,,,0.00,Rainwise IP-100,2013-04-04 10:20:00,
2013-04-04 06:25:00,29.7,16.0,29.76,West,270,2.0,4.0,55,0.00,,,0.00,Rainwise IP-100,2013-04-04 10:25:00,
2013-04-04 06:30:00,29.6,16.0,29.76,WNW,292,4.0,5.0,54,0.00,,,0.00,Rainwise IP-100,2013-04-04 10:30:00,
2013-04-04 06:35:00,29.6,16.0,29.76,WSW,247,2.0,8.0,52,0.00,,,0.00,Rainwise IP-100,2013-04-04 10:35:00,
2013-04-04 06:40:00,29.6,16.0,29.76,WSW,247,5.0,7.0,55,0.00,,,0.00,Rainwise IP-100,2013-04-04 10:40:00,
2013-04-04 06:45:00,29.7,16.0,29.76,West,270,3.0,6.0,53,0.00,,,0.00,Rainwise IP-100,2013-04-04 10:45:00,
2013-04-04 06:50:00,29.7,16.0,29.77,West,270,6.0,6.0,55,0.00,,,0.00,Rainwise IP-100,2013-04-04 10:50:00,
2013-04-04 06:55:00,29.8,16.0,29.77,West,270,2.0,6.0,54,0.00,,,0.00,Rainwise IP-100,2013-04-04 10:55:00,
2013-04-04 07:00:00,30.0,16.0,29.77,WSW,247,5.0,7.0,55,0.00,,,0.00,Rainwise IP-100,2013-04-04 11:00:00,
2013-04-04 07:05:00,30.1,16.0,29.78,WSW,247,4.0,9.0,53,0.00,,,0.00,Rainwise IP-100,2013-04-04 11:05:00,
2013-04-04 07:10:00,30.2,16.0,29.78,West,270,4.0,9.0,52,0.00,,,0.00,Rainwise IP-100,2013-04-04 11:10:00,
2013-04-04 07:15:00,30.3,16.0,29.78,West,270,4.0,11.0,51,0.00,,,0.00,Rainwise IP-100,2013-04-04 11:15:00,
2013-04-04 07:20:00,30.3,16.0,29.79,West,270,1.0,7.0,52,0.00,,,0.00,Rainwise IP-100,2013-04-04 11:20:00,
2013-04-04 07:25:00,30.3,16.0,29.79,WSW,247,5.0,7.0,51,0.00,,,0.00,Rainwise IP-100,2013-04-04 11:25:00,
2013-04-04 07:30:00,30.5,16.0,29.79,South,180,6.0,7.0,50,0.00,,,0.00,Rainwise IP-100,2013-04-04 11:30:00,
2013-04-04 07:35:00,30.6,14.0,29.80,WSW,247,4.0,10.0,49,0.00,,,0.00,Rainwise IP-100,2013-04-04 11:35:00,
2013-04-04 07:40:00,30.7,14.0,29.80,WSW,247,5.0,8.0,48,0.00,,,0.00,Rainwise IP-100,2013-04-04 11:40:00,
2013-04-04 07:45:00,30.8,14.0,29.80,WSW,247,1.0,9.0,49,0.00,,,0.00,Rainwise IP-100,2013-04-04 11:45:00,
2013-04-04 07:50:00,31.1,14.0,29.80,WSW,247,1.0,10.0,49,0.00,,,0.00,Rainwise IP-100,2013-04-04 11:50:00,
2013-04-04 07:55:00,31.1,14.0,29.80,West,270,9.0,10.0,48,0.00,,,0.00,Rainwise IP-100,2013-04-04 11:55:00,
2013-04-04 08:00:00,31.3,14.0,29.81,West,270,2.0,9.0,48,0.00,,,0.00,Rainwise IP-100,2013-04-04 12:00:00,
2013-04-04 08:05:00,31.4,14.0,29.81,West,270,6.0,11.0,49,0.00,,,0.00,Rainwise IP-100,2013-04-04 12:05:00,
2013-04-04 08:10:00,31.6,16.0,29.81,WSW,247,5.0,8.0,48,0.00,,,0.00,Rainwise IP-100,2013-04-04 12:10:00,
2013-04-04 08:15:00,31.7,14.0,29.81,WSW,247,7.0,11.0,45,0.00,,,0.00,Rainwise IP-100,2013-04-04 12:15:00,
2013-04-04 08:20:00,32.3,14.0,29.82,West,270,5.0,10.0,45,0.00,,,0.00,Rainwise IP-100,2013-04-04 12:20:00,
2013-04-04 08:25:00,32.7,14.0,29.82,SSW,202,5.0,10.0,44,0.00,,,0.00,Rainwise IP-100,2013-04-04 12:25:00,
2013-04-04 08:30:00,32.9,16.0,29.82,WSW,247,4.0,10.0,47,0.00,,,0.00,Rainwise IP-100,2013-04-04 12:30:00,
2013-04-04 08:35:00,32.9,14.0,29.83,WSW,247,4.0,11.0,43,0.00,,,0.00,Rainwise IP-100,2013-04-04 12:35:00,
2013-04-04 08:40:00,33.5,16.0,29.84,West,270,7.0,8.0,46,0.00,,,0.00,Rainwise IP-100,2013-04-04 12:40:00,
2013-04-04 08:45:00,33.6,16.0,29.84,WSW,247,6.0,12.0,44,0.00,,,0.00,Rainwise IP-100,2013-04-04 12:45:00,
2013-04-04 08:50:00,33.7,16.0,29.85,WSW,247,7.0,10.0,44,0.00,,,0.00,Rainwise IP-100,2013-04-04 12:50:00,
2013-04-04 08:55:00,33.9,16.0,29.85,WSW,247,6.0,9.0,44,0.00,,,0.00,Rainwise IP-100,2013-04-04 12:55:00,
2013-04-04 09:00:00,33.9,14.0,29.86,West,270,6.0,12.0,40,0.00,,,0.00,Rainwise IP-100,2013-04-04 13:00:00,
2013-04-04 09:05:00,34.1,16.0,29.86,WSW,247,9.0,9.0,44,0.00,,,0.00,Rainwise IP-100,2013-04-04 13:05:00,
2013-04-04 09:10:00,34.0,14.0,29.86,WSW,247,7.0,14.0,41,0.00,,,0.00,Rainwise IP-100,2013-04-04 13:10:00,
2013-04-04 09:15:00,34.4,14.0,29.86,WNW,292,7.0,10.0,42,0.00,,,0.00,Rainwise IP-100,2013-04-04 13:15:00,
2013-04-04 09:20:00,34.7,14.0,29.86,WSW,247,7.0,12.0,40,0.00,,,0.00,Rainwise IP-100,2013-04-04 13:20:00,
2013-04-04 09:25:00,34.9,14.0,29.86,WSW,247,7.0,11.0,41,0.00,,,0.00,Rainwise IP-100,2013-04-04 13:25:00,
2013-04-04 09:30:00,34.9,14.0,29.86,WSW,247,5.0,11.0,39,0.00,,,0.00,Rainwise IP-100,2013-04-04 13:30:00,
2013-04-04 09:35:00,35.4,14.0,29.86,SW,225,4.0,7.0,40,0.00,,,0.00,Rainwise IP-100,2013-04-04 13:35:00,
2013-04-04 09:40:00,35.7,14.0,29.86,WSW,247,10.0,10.0,36,0.00,,,0.00,Rainwise IP-100,2013-04-04 13:40:00,
2013-04-04 09:45:00,35.7,14.0,29.86,West,270,4.0,12.0,38,0.00,,,0.00,Rainwise IP-100,2013-04-04 13:45:00,
2013-04-04 09:50:00,36.0,16.0,29.86,WSW,247,5.0,11.0,41,0.00,,,0.00,Rainwise IP-100,2013-04-04 13:50:00,
2013-04-04 09:55:00,36.2,16.0,29.86,WSW,247,3.0,11.0,41,0.00,,,0.00,Rainwise IP-100,2013-04-04 13:55:00,
2013-04-04 10:00:00,36.4,14.0,29.87,West,270,6.0,11.0,39,0.00,,,0.00,Rainwise IP-100,2013-04-04 14:00:00,
2013-04-04 10:05:00,36.7,16.0,29.87,WSW,247,7.0,9.0,39,0.00,,,0.00,Rainwise IP-100,2013-04-04 14:05:00,
2013-04-04 10:10:00,36.9,14.0,29.87,WSW,247,7.0,12.0,37,0.00,,,0.00,Rainwise IP-100,2013-04-04 14:10:00,
2013-04-04 10:15:00,37.3,14.0,29.88,West,270,6.0,12.0,37,0.00,,,0.00,Rainwise IP-100,2013-04-04 14:15:00,
2013-04-04 10:20:00,37.5,16.0,29.87,SW,225,3.0,9.0,37,0.00,,,0.00,Rainwise IP-100,2013-04-04 14:20:00,
2013-04-04 10:25:00,37.8,16.0,29.88,NW,315,3.0,11.0,37,0.00,,,0.00,Rainwise IP-100,2013-04-04 14:25:00,
2013-04-04 10:30:00,37.9,16.0,29.87,West,270,11.0,11.0,37,0.00,,,0.00,Rainwise IP-100,2013-04-04 14:30:00,
2013-04-04 10:35:00,38.1,16.0,29.88,WSW,247,6.0,12.0,38,0.00,,,0.00,Rainwise IP-100,2013-04-04 14:35:00,
2013-04-04 10:40:00,38.3,14.0,29.88,WSW,247,4.0,9.0,36,0.00,,,0.00,Rainwise IP-100,2013-04-04 14:40:00,
2013-04-04 10:45:00,38.8,16.0,29.88,West,270,5.0,9.0,38,0.00,,,0.00,Rainwise IP-100,2013-04-04 14:45:00,
2013-04-04 10:50:00,38.7,14.0,29.87,WSW,247,9.0,11.0,34,0.00,,,0.00,Rainwise IP-100,2013-04-04 14:50:00,
2013-04-04 10:55:00,38.6,16.0,29.88,SW,225,4.0,12.0,38,0.00,,,0.00,Rainwise IP-100,2013-04-04 14:55:00,
2013-04-04 11:00:00,38.6,14.0,29.88,SW,225,5.0,11.0,33,0.00,,,0.00,Rainwise IP-100,2013-04-04 15:00:00,
2013-04-04 11:05:00,38.7,14.0,29.88,West,270,7.0,11.0,35,0.00,,,0.00,Rainwise IP-100,2013-04-04 15:05:00,
2013-04-04 11:10:00,38.8,16.0,29.88,West,270,6.0,12.0,36,0.00,,,0.00,Rainwise IP-100,2013-04-04 15:10:00,
2013-04-04 11:15:00,38.8,14.0,29.88,WSW,247,4.0,11.0,34,0.00,,,0.00,Rainwise IP-100,2013-04-04 15:15:00,
2013-04-04 11:20:00,38.8,14.0,29.87,West,270,7.0,11.0,35,0.00,,,0.00,Rainwise IP-100,2013-04-04 15:20:00,
2013-04-04 11:25:00,38.7,14.0,29.86,WSW,247,6.0,12.0,34,0.00,,,0.00,Rainwise IP-100,2013-04-04 15:25:00,
2013-04-04 11:30:00,39.2,14.0,29.87,WSW,247,9.0,13.0,34,0.00,,,0.00,Rainwise IP-100,2013-04-04 15:30:00,
2013-04-04 11:35:00,39.5,14.0,29.87,WSW,247,5.0,11.0,33,0.00,,,0.00,Rainwise IP-100,2013-04-04 15:35:00,
2013-04-04 11:40:00,39.8,14.0,29.86,WSW,247,4.0,9.0,32,0.00,,,0.00,Rainwise IP-100,2013-04-04 15:40:00,
2013-04-04 11:45:00,40.4,14.0,29.86,WSW,247,2.0,9.0,33,0.00,,,0.00,Rainwise IP-100,2013-04-04 15:45:00,
2013-04-04 11:50:00,40.6,16.0,29.86,WSW,247,6.0,9.0,36,0.00,,,0.00,Rainwise IP-100,2013-04-04 15:50:00,
2013-04-04 11:55:00,40.7,14.0,29.86,WSW,247,5.0,10.0,32,0.00,,,0.00,Rainwise IP-100,2013-04-04 15:55:00,
2013-04-04 12:00:00,41.1,16.0,29.86,West,270,4.0,7.0,34,0.00,,,0.00,Rainwise IP-100,2013-04-04 16:00:00,
2013-04-04 12:05:00,41.3,16.0,29.86,West,270,2.0,8.0,33,0.00,,,0.00,Rainwise IP-100,2013-04-04 16:05:00,
2013-04-04 12:11:00,41.4,16.0,29.85,WSW,247,7.0,8.0,34,0.00,,,0.00,Rainwise IP-100,2013-04-04 16:11:00,
2013-04-04 12:16:00,41.5,14.0,29.85,WSW,247,5.0,9.0,29,0.00,,,0.00,Rainwise IP-100,2013-04-04 16:16:00,
2013-04-04 12:21:00,41.2,14.0,29.84,WSW,247,4.0,7.0,30,0.00,,,0.00,Rainwise IP-100,2013-04-04 16:21:00,
2013-04-04 12:26:00,40.8,14.0,29.84,East,90,2.0,8.0,31,0.00,,,0.00,Rainwise IP-100,2013-04-04 16:26:00,
2013-04-04 12:31:00,40.7,14.0,29.84,NNW,337,2.0,9.0,30,0.00,,,0.00,Rainwise IP-100,2013-04-04 16:31:00,
2013-04-04 12:36:00,41.3,14.0,29.83,WSW,247,2.0,7.0,32,0.00,,,0.00,Rainwise IP-100,2013-04-04 16:36:00,
2013-04-04 12:41:00,41.7,16.0,29.83,West,270,4.0,8.0,32,0.00,,,0.00,Rainwise IP-100,2013-04-04 16:41:00,
2013-04-04 12:46:00,42.2,16.0,29.82,SSW,202,2.0,7.0,34,0.00,,,0.00,Rainwise IP-100,2013-04-04 16:46:00,
2013-04-04 12:51:00,42.6,16.0,29.82,SSW,202,2.0,8.0,32,0.00,,,0.00,Rainwise IP-100,2013-04-04 16:51:00,
2013-04-04 12:56:00,42.8,14.0,29.82,West,270,5.0,7.0,30,0.00,,,0.00,Rainwise IP-100,2013-04-04 16:56:00,
2013-04-04 13:01:00,42.8,14.0,29.82,WSW,247,4.0,9.0,29,0.00,,,0.00,Rainwise IP-100,2013-04-04 17:01:00,
2013-04-04 13:06:00,43.2,14.0,29.82,WSW,247,5.0,8.0,28,0.00,,,0.00,Rainwise IP-100,2013-04-04 17:06:00,
2013-04-04 13:11:00,43.9,16.0,29.82,SW,225,5.0,7.0,31,0.00,,,0.00,Rainwise IP-100,2013-04-04 17:11:00,
2013-04-04 13:16:00,43.9,14.0,29.82,WSW,247,4.0,10.0,27,0.00,,,0.00,Rainwise IP-100,2013-04-04 17:16:00,
2013-04-04 13:21:00,44.0,14.0,29.82,WSW,247,4.0,8.0,28,0.00,,,0.00,Rainwise IP-100,2013-04-04 17:21:00,
2013-04-04 13:26:00,43.4,16.0,29.82,WSW,247,4.0,7.0,32,0.00,,,0.00,Rainwise IP-100,2013-04-04 17:26:00,
2013-04-04 13:31:00,43.2,16.0,29.82,WSW,247,4.0,8.0,31,0.00,,,0.00,Rainwise IP-100,2013-04-04 17:31:00,
2013-04-04 13:36:00,43.6,14.0,29.82,SW,225,2.0,6.0,29,0.00,,,0.00,Rainwise IP-100,2013-04-04 17:36:00,
2013-04-04 13:41:00,44.5,14.0,29.82,WSW,247,4.0,7.0,28,0.00,,,0.00,Rainwise IP-100,2013-04-04 17:41:00,
2013-04-04 13:46:00,44.5,16.0,29.82,WSW,247,3.0,9.0,29,0.00,,,0.00,Rainwise IP-100,2013-04-04 17:46:00,
2013-04-04 13:51:00,44.5,18.0,29.82,WSW,247,3.0,9.0,34,0.00,,,0.00,Rainwise IP-100,2013-04-04 17:51:00,
2013-04-04 13:56:00,44.6,16.0,29.82,West,270,6.0,8.0,29,0.00,,,0.00,Rainwise IP-100,2013-04-04 17:56:00,
2013-04-04 14:01:00,44.5,16.0,29.83,WSW,247,6.0,9.0,29,0.00,,,0.00,Rainwise IP-100,2013-04-04 18:01:00,
2013-04-04 14:06:00,44.8,16.0,29.83,WSW,247,8.0,12.0,29,0.00,,,0.00,Rainwise IP-100,2013-04-04 18:06:00,
2013-04-04 14:11:00,44.9,16.0,29.83,WSW,247,2.0,9.0,29,0.00,,,0.00,Rainwise IP-100,2013-04-04 18:11:00,
2013-04-04 14:16:00,45.2,18.0,29.82,WSW,247,5.0,9.0,32,0.00,,,0.00,Rainwise IP-100,2013-04-04 18:16:00,
2013-04-04 14:21:00,45.1,16.0,29.83,WSW,247,6.0,9.0,29,0.00,,,0.00,Rainwise IP-100,2013-04-04 18:21:00,
2013-04-04 14:26:00,45.4,16.0,29.82,WSW,247,8.0,10.0,30,0.00,,,0.00,Rainwise IP-100,2013-04-04 18:26:00,
2013-04-04 14:31:00,45.4,16.0,29.82,WSW,247,1.0,9.0,29,0.00,,,0.00,Rainwise IP-100,2013-04-04 18:31:00,
2013-04-04 14:36:00,45.6,16.0,29.82,WSW,247,5.0,11.0,29,0.00,,,0.00,Rainwise IP-100,2013-04-04 18:36:00,
2013-04-04 14:41:00,46.2,16.0,29.83,WSW,247,2.0,9.0,28,0.00,,,0.00,Rainwise IP-100,2013-04-04 18:41:00,
2013-04-04 14:46:00,46.8,16.0,29.83,SSE,157,2.0,11.0,27,0.00,,,0.00,Rainwise IP-100,2013-04-04 18:46:00,
2013-04-04 14:51:00,46.4,14.0,29.82,West,270,8.0,10.0,27,0.00,,,0.00,Rainwise IP-100,2013-04-04 18:51:00,
2013-04-04 14:56:00,46.1,14.0,29.82,WSW,247,6.0,11.0,27,0.00,,,0.00,Rainwise IP-100,2013-04-04 18:56:00,
2013-04-04 15:01:00,46.4,14.0,29.82,WSW,247,6.0,10.0,27,0.00,,,0.00,Rainwise IP-100,2013-04-04 19:01:00,
2013-04-04 15:06:00,46.3,14.0,29.82,South,180,4.0,10.0,26,0.00,,,0.00,Rainwise IP-100,2013-04-04 19:06:00,
2013-04-04 15:11:00,46.7,16.0,29.82,WNW,292,2.0,8.0,28,0.00,,,0.00,Rainwise IP-100,2013-04-04 19:11:00,
2013-04-04 15:16:00,45.9,21.0,29.82,SSW,202,6.0,16.0,37,0.00,,,0.00,Rainwise IP-100,2013-04-04 19:16:00,
2013-04-04 15:21:00,44.7,24.0,29.82,SSW,202,5.0,11.0,44,0.00,,,0.00,Rainwise IP-100,2013-04-04 19:21:00,
2013-04-04 15:26:00,44.2,24.0,29.82,SW,225,7.0,14.0,45,0.00,,,0.00,Rainwise IP-100,2013-04-04 19:26:00,
2013-04-04 15:31:00,43.7,26.0,29.82,SSW,202,4.0,14.0,47,0.00,,,0.00,Rainwise IP-100,2013-04-04 19:31:00,
2013-04-04 15:36:00,43.9,28.0,29.82,SW,225,5.0,12.0,50,0.00,,,0.00,Rainwise IP-100,2013-04-04 19:36:00,
2013-04-04 15:41:00,43.8,26.0,29.82,SE,135,1.0,15.0,48,0.00,,,0.00,Rainwise IP-100,2013-04-04 19:41:00,
2013-04-04 15:46:00,43.5,26.0,29.81,South,180,7.0,15.0,49,0.00,,,0.00,Rainwise IP-100,2013-04-04 19:46:00,
2013-04-04 15:51:00,43.9,26.0,29.81,WSW,247,2.0,16.0,49,0.00,,,0.00,Rainwise IP-100,2013-04-04 19:51:00,
2013-04-04 15:57:00,44.5,26.0,29.80,South,180,6.0,14.0,47,0.00,,,0.00,Rainwise IP-100,2013-04-04 19:57:00,
2013-04-04 16:02:00,44.1,26.0,29.81,South,180,4.0,11.0,49,0.00,,,0.00,Rainwise IP-100,2013-04-04 20:02:00,
2013-04-04 16:07:00,43.9,26.0,29.81,SSW,202,9.0,14.0,48,0.00,,,0.00,Rainwise IP-100,2013-04-04 20:07:00,
2013-04-04 16:12:00,43.6,28.0,29.80,SSW,202,19.0,19.0,51,0.00,,,0.00,Rainwise IP-100,2013-04-04 20:12:00,
2013-04-04 16:17:00,43.4,26.0,29.81,SW,225,2.0,19.0,51,0.00,,,0.00,Rainwise IP-100,2013-04-04 20:17:00,
2013-04-04 16:22:00,43.5,28.0,29.81,WSW,247,2.0,11.0,51,0.00,,,0.00,Rainwise IP-100,2013-04-04 20:22:00,
2013-04-04 16:27:00,43.4,26.0,29.81,South,180,2.0,17.0,51,0.00,,,0.00,Rainwise IP-100,2013-04-04 20:27:00,
2013-04-04 16:32:00,43.7,28.0,29.80,SSW,202,2.0,9.0,51,0.00,,,0.00,Rainwise IP-100,2013-04-04 20:32:00,
2013-04-04 16:37:00,43.5,28.0,29.81,SW,225,4.0,14.0,53,0.00,,,0.00,Rainwise IP-100,2013-04-04 20:37:00,
2013-04-04 16:42:00,42.9,28.0,29.80,WSW,247,4.0,13.0,53,0.00,,,0.00,Rainwise IP-100,2013-04-04 20:42:00,
2013-04-04 16:47:00,43.4,28.0,29.80,SSE,157,2.0,14.0,54,0.00,,,0.00,Rainwise IP-100,2013-04-04 20:47:00,
2013-04-04 16:52:00,43.3,28.0,29.80,South,180,4.0,16.0,52,0.00,,,0.00,Rainwise IP-100,2013-04-04 20:52:00,
2013-04-04 16:57:00,43.0,28.0,29.80,West,270,6.0,15.0,53,0.00,,,0.00,Rainwise IP-100,2013-04-04 20:57:00,
2013-04-04 17:02:00,42.9,28.0,29.79,WSW,247,6.0,11.0,53,0.00,,,0.00,Rainwise IP-100,2013-04-04 21:02:00,
2013-04-04 17:07:00,43.1,28.0,29.79,SSW,202,6.0,9.0,53,0.00,,,0.00,Rainwise IP-100,2013-04-04 21:07:00,
2013-04-04 17:12:00,43.1,28.0,29.79,WSW,247,2.0,11.0,54,0.00,,,0.00,Rainwise IP-100,2013-04-04 21:12:00,
2013-04-04 17:17:00,43.1,28.0,29.79,WSW,247,5.0,14.0,54,0.00,,,0.00,Rainwise IP-100,2013-04-04 21:17:00,
2013-04-04 17:22:00,43.2,28.0,29.78,SSE,157,6.0,7.0,54,0.00,,,0.00,Rainwise IP-100,2013-04-04 21:22:00,
2013-04-04 17:27:00,42.7,28.0,29.78,South,180,4.0,11.0,54,0.00,,,0.00,Rainwise IP-100,2013-04-04 21:27:00,
2013-04-04 17:32:00,43.1,28.0,29.78,WSW,247,4.0,11.0,54,0.00,,,0.00,Rainwise IP-100,2013-04-04 21:32:00,
2013-04-04 17:37:00,42.8,28.0,29.78,SW,225,2.0,16.0,54,0.00,,,0.00,Rainwise IP-100,2013-04-04 21:37:00,
2013-04-04 17:42:00,42.4,28.0,29.78,SSW,202,6.0,17.0,54,0.00,,,0.00,Rainwise IP-100,2013-04-04 21:42:00,
2013-04-04 17:47:00,42.6,28.0,29.78,WSW,247,7.0,16.0,54,0.00,,,0.00,Rainwise IP-100,2013-04-04 21:47:00,
2013-04-04 17:52:00,42.4,28.0,29.78,South,180,1.0,13.0,55,0.00,,,0.00,Rainwise IP-100,2013-04-04 21:52:00,
2013-04-04 17:57:00,42.2,29.0,29.78,SW,225,3.0,11.0,58,0.00,,,0.00,Rainwise IP-100,2013-04-04 21:57:00,
2013-04-04 18:02:00,41.5,29.0,29.77,SSW,202,1.0,14.0,61,0.00,,,0.00,Rainwise IP-100,2013-04-04 22:02:00,
2013-04-04 18:07:00,41.2,29.0,29.77,WSW,247,4.0,13.0,61,0.00,,,0.00,Rainwise IP-100,2013-04-04 22:07:00,
2013-04-04 18:12:00,40.9,29.0,29.76,WSW,247,8.0,10.0,61,0.00,,,0.00,Rainwise IP-100,2013-04-04 22:12:00,
2013-04-04 18:17:00,40.7,29.0,29.76,WSW,247,5.0,14.0,60,0.00,,,0.00,Rainwise IP-100,2013-04-04 22:17:00,
2013-04-04 18:22:00,40.5,28.0,29.76,SW,225,4.0,9.0,58,0.00,,,0.00,Rainwise IP-100,2013-04-04 22:22:00,
2013-04-04 18:27:00,40.3,28.0,29.76,SSW,202,1.0,7.0,58,0.00,,,0.00,Rainwise IP-100,2013-04-04 22:27:00,
2013-04-04 18:32:00,40.1,28.0,29.75,SSW,202,1.0,13.0,59,0.00,,,0.00,Rainwise IP-100,2013-04-04 22:32:00,
2013-04-04 18:37:00,39.9,28.0,29.75,SSW,202,2.0,9.0,61,0.00,,,0.00,Rainwise IP-100,2013-04-04 22:37:00,
2013-04-04 18:42:00,39.7,29.0,29.75,SSW,202,2.0,12.0,64,0.00,,,0.00,Rainwise IP-100,2013-04-04 22:42:00,
2013-04-04 18:47:00,39.5,29.0,29.75,SW,225,5.0,14.0,65,0.00,,,0.00,Rainwise IP-100,2013-04-04 22:47:00,
2013-04-04 18:52:00,39.4,28.0,29.75,West,270,4.0,14.0,64,0.00,,,0.00,Rainwise IP-100,2013-04-04 22:52:00,
2013-04-04 18:57:00,39.3,29.0,29.75,SW,225,4.0,16.0,65,0.00,,,0.00,Rainwise IP-100,2013-04-04 22:57:00,
2013-04-04 19:02:00,39.2,29.0,29.75,West,270,2.0,12.0,66,0.00,,,0.00,Rainwise IP-100,2013-04-04 23:02:00,
2013-04-04 19:07:00,38.9,29.0,29.74,SW,225,2.0,7.0,68,0.00,,,0.00,Rainwise IP-100,2013-04-04 23:07:00,
2013-04-04 19:12:00,38.8,31.0,29.74,SSW,202,4.0,8.0,71,0.00,,,0.00,Rainwise IP-100,2013-04-04 23:12:00,
2013-04-04 19:17:00,38.7,31.0,29.75,WSW,247,2.0,9.0,72,0.00,,,0.00,Rainwise IP-100,2013-04-04 23:17:00,
2013-04-04 19:22:00,38.5,31.0,29.75,SW,225,3.0,5.0,71,0.00,,,0.00,Rainwise IP-100,2013-04-04 23:22:00,
2013-04-04 19:27:00,38.6,31.0,29.74,West,270,2.0,8.0,71,0.00,,,0.00,Rainwise IP-100,2013-04-04 23:27:00,
2013-04-04 19:32:00,38.6,31.0,29.74,SSW,202,9.0,9.0,70,0.00,,,0.00,Rainwise IP-100,2013-04-04 23:32:00,
2013-04-04 19:37:00,38.6,31.0,29.74,SSW,202,2.0,11.0,70,0.00,,,0.00,Rainwise IP-100,2013-04-04 23:37:00,
2013-04-04 19:42:00,38.5,31.0,29.74,South,180,4.0,12.0,71,0.00,,,0.00,Rainwise IP-100,2013-04-04 23:42:00,
2013-04-04 19:47:00,38.4,31.0,29.75,SSW,202,1.0,8.0,74,0.00,,,0.00,Rainwise IP-100,2013-04-04 23:47:00,
2013-04-04 19:52:00,38.4,31.0,29.75,SSE,157,1.0,10.0,76,0.00,,,0.00,Rainwise IP-100,2013-04-04 23:52:00,
2013-04-04 19:57:00,38.4,32.0,29.74,WSW,247,1.0,7.0,77,0.00,,,0.00,Rainwise IP-100,2013-04-04 23:57:00,
2013-04-04 20:02:00,38.3,32.0,29.74,WSW,247,2.0,7.0,78,0.00,,,0.00,Rainwise IP-100,2013-04-05 00:02:00,
2013-04-04 20:07:00,38.3,32.0,29.75,WSW,247,3.0,11.0,78,0.00,,,0.00,Rainwise IP-100,2013-04-05 00:07:00,
2013-04-04 20:12:00,38.2,32.0,29.75,SSW,202,3.0,8.0,79,0.00,,,0.00,Rainwise IP-100,2013-04-05 00:12:00,
2013-04-04 20:17:00,38.1,32.0,29.75,South,180,1.0,10.0,80,0.00,,,0.00,Rainwise IP-100,2013-04-05 00:17:00,
2013-04-04 20:22:00,38.1,33.0,29.75,WSW,247,1.0,6.0,82,0.00,,,0.00,Rainwise IP-100,2013-04-05 00:22:00,
2013-04-04 20:27:00,37.9,35.0,29.74,SSW,202,2.0,8.0,85,0.00,,,0.00,Rainwise IP-100,2013-04-05 00:27:00,
2013-04-04 20:32:00,37.9,35.0,29.75,SE,135,2.0,7.0,85,0.00,,,0.00,Rainwise IP-100,2013-04-05 00:32:00,
2013-04-04 20:37:00,37.8,35.0,29.74,South,180,1.0,6.0,87,0.00,,,0.00,Rainwise IP-100,2013-04-05 00:37:00,
2013-04-04 20:42:00,37.8,35.0,29.74,SSW,202,4.0,8.0,89,0.00,,,0.00,Rainwise IP-100,2013-04-05 00:42:00,
2013-04-04 20:47:00,37.7,36.0,29.75,SSW,202,2.0,5.0,91,0.00,,,0.00,Rainwise IP-100,2013-04-05 00:47:00,
2013-04-04 20:52:00,37.8,36.0,29.74,SSW,202,1.0,7.0,92,0.00,,,0.00,Rainwise IP-100,2013-04-05 00:52:00,
2013-04-04 20:57:00,37.8,36.0,29.74,SSE,157,2.0,7.0,92,0.00,,,0.00,Rainwise IP-100,2013-04-05 00:57:00,
2013-04-04 21:02:00,37.6,36.0,29.74,SSW,202,2.0,7.0,92,0.00,,,0.00,Rainwise IP-100,2013-04-05 01:02:00,
2013-04-04 21:07:00,37.7,36.0,29.74,SSW,202,2.0,4.0,93,0.00,,,0.00,Rainwise IP-100,2013-04-05 01:07:00,
2013-04-04 21:12:00,37.6,37.0,29.74,South,180,2.0,4.0,95,0.00,,,0.00,Rainwise IP-100,2013-04-05 01:12:00,
2013-04-04 21:17:00,37.5,37.0,29.74,SSW,202,1.0,4.0,95,0.00,,,0.00,Rainwise IP-100,2013-04-05 01:17:00,
2013-04-04 21:22:00,37.5,37.0,29.74,South,180,2.0,6.0,95,0.00,,,0.00,Rainwise IP-100,2013-04-05 01:22:00,
2013-04-04 21:27:00,37.8,37.0,29.74,WSW,247,4.0,9.0,95,0.00,,,0.00,Rainwise IP-100,2013-04-05 01:27:00,
2013-04-04 21:32:00,37.9,37.0,29.73,SSW,202,3.0,6.0,95,0.00,,,0.00,Rainwise IP-100,2013-04-05 01:32:00,
2013-04-04 21:37:00,38.2,37.0,29.73,SW,225,2.0,9.0,96,0.00,,,0.00,Rainwise IP-100,2013-04-05 01:37:00,
2013-04-04 21:42:00,38.3,37.0,29.73,WSW,247,2.0,7.0,96,0.00,,,0.00,Rainwise IP-100,2013-04-05 01:42:00,
2013-04-04 21:47:00,38.4,37.0,29.73,SE,135,5.0,7.0,96,0.00,,,0.00,Rainwise IP-100,2013-04-05 01:47:00,
2013-04-04 21:52:00,38.6,38.0,29.73,SW,225,2.0,7.0,96,0.00,,,0.00,Rainwise IP-100,2013-04-05 01:52:00,
2013-04-04 21:57:00,38.9,38.0,29.73,WSW,247,2.0,7.0,96,0.00,,,0.00,Rainwise IP-100,2013-04-05 01:57:00,
2013-04-04 22:02:00,38.9,38.0,29.73,SE,135,2.0,7.0,96,0.00,,,0.00,Rainwise IP-100,2013-04-05 02:02:00,
2013-04-04 22:07:00,39.0,38.0,29.72,SSE,157,2.0,9.0,96,0.00,,,0.00,Rainwise IP-100,2013-04-05 02:07:00,
2013-04-04 22:12:00,38.8,38.0,29.72,SSW,202,1.0,6.0,96,0.00,,,0.00,Rainwise IP-100,2013-04-05 02:12:00,
2013-04-04 22:17:00,38.8,38.0,29.72,WSW,247,3.0,6.0,96,0.00,,,0.00,Rainwise IP-100,2013-04-05 02:17:00,
2013-04-04 22:22:00,38.9,38.0,29.72,SSW,202,9.0,9.0,96,0.00,,,0.00,Rainwise IP-100,2013-04-05 02:22:00,
2013-04-04 22:27:00,39.0,38.0,29.72,West,270,4.0,11.0,96,0.00,,,0.00,Rainwise IP-100,2013-04-05 02:27:00,
2013-04-04 22:33:00,39.1,38.0,29.72,West,270,2.0,10.0,96,0.00,,,0.00,Rainwise IP-100,2013-04-05 02:33:00,
2013-04-04 22:38:00,38.9,38.0,29.72,SSW,202,3.0,6.0,96,0.00,,,0.00,Rainwise IP-100,2013-04-05 02:38:00,
2013-04-04 22:43:00,38.9,38.0,29.72,South,180,1.0,6.0,96,0.00,,,0.00,Rainwise IP-100,2013-04-05 02:43:00,
2013-04-04 22:48:00,38.9,38.0,29.72,SW,225,1.0,4.0,96,0.00,,,0.00,Rainwise IP-100,2013-04-05 02:48:00,
2013-04-04 22:53:00,38.9,38.0,29.71,SW,225,2.0,7.0,96,0.00,,,0.00,Rainwise IP-100,2013-04-05 02:53:00,
2013-04-04 22:58:00,38.9,38.0,29.72,SSW,202,2.0,7.0,96,0.00,,,0.00,Rainwise IP-100,2013-04-05 02:58:00,
2013-04-04 23:03:00,38.9,38.0,29.72,SSW,202,3.0,7.0,96,0.00,,,0.00,Rainwise IP-100,2013-04-05 03:03:00,
2013-04-04 23:08:00,38.9,38.0,29.72,SSW,202,6.0,9.0,96,0.00,,,0.00,Rainwise IP-100,2013-04-05 03:08:00,
2013-04-04 23:13:00,39.2,38.0,29.71,WSW,247,2.0,9.0,96,0.00,,,0.00,Rainwise IP-100,2013-04-05 03:13:00,
2013-04-04 23:18:00,39.1,38.0,29.71,ESE,112,1.0,7.0,96,0.00,,,0.00,Rainwise IP-100,2013-04-05 03:18:00,
2013-04-04 23:23:00,39.2,38.0,29.71,SSE,157,4.0,6.0,96,0.00,,,0.00,Rainwise IP-100,2013-04-05 03:23:00,
2013-04-04 23:28:00,39.4,38.0,29.70,ESE,112,1.0,9.0,96,0.00,,,0.00,Rainwise IP-100,2013-04-05 03:28:00,
2013-04-04 23:33:00,39.5,39.0,29.70,SSE,157,1.0,9.0,96,0.00,,,0.00,Rainwise IP-100,2013-04-05 03:33:00,
2013-04-04 23:38:00,39.6,39.0,29.70,WSW,247,1.0,8.0,96,0.00,,,0.00,Rainwise IP-100,2013-04-05 03:38:00,
2013-04-04 23:43:00,39.6,39.0,29.70,WNW,292,5.0,14.0,96,0.00,,,0.00,Rainwise IP-100,2013-04-05 03:43:00,
2013-04-04 23:48:00,39.8,39.0,29.70,SSW,202,4.0,9.0,96,0.00,,,0.00,Rainwise IP-100,2013-04-05 03:48:00,
2013-04-04 23:53:00,39.8,39.0,29.69,SSW,202,1.0,9.0,96,0.00,,,0.00,Rainwise IP-100,2013-04-05 03:53:00,
2013-04-04 23:58:00,39.9,39.0,29.69,SSW,202,4.0,7.0,96,0.00,,,0.00,Rainwise IP-100,2013-04-05 03:58:00,